QPF
0.01 0.01 0.02 0.02 0.02 0.03 0.03 0.04 0.05 0.05 0.04 0.03 0.03 0.03 0.04 0.04 0.05 0.06 0.06 0.05 0.03 0.03 0.03 0.04 0.04 0.04 0.03 0.03 0.03 0.02 0.02 0.03 0.03 0.03 0.04 0.04 0.05 0.04
0.01 0.01 0.01 0.01 0.01 0.02 0.02 0.03 0.04 0.04 0.03 0.02 0.02 0.03 0.04 0.05 0.05 0.05 0.05 0.06 0.06 0.04 0.03 0.03 0.03 0.03 0.03 0.03 0.03 0.03 0.02 0.02 0.02 0.02 0.03 0.04 0.05 0.05
0.01 0.01 0.01 0.01 0.02 0.01 0.02 0.02 0.03 0.04 0.04 0.02 0.02 0.02 0.03 0.04 0.04 0.05 0.05 0.05 0.05 0.06 0.05 0.04 0.03 0.03 0.03 0.02 0.02 0.03 0.03 0.02 0.02 0.02 0.02 0.03 0.03 0.04
0.01 0.01 0.01 0.02 0.02 0.02 0.02 0.02 0.02 0.02 0.03 0.02 0.02 0.02 0.02 0.03 0.03 0.04 0.05 0.05 0.05 0.04 0.05 0.05 0.04 0.04 0.04 0.03 0.03 0.02 0.02 0.02 0.03 0.02 0.02 0.03 0.03 0.03
0.03 0.02 0.02 0.02 0.02 0.02 0.02 0.02 0.02 0.03 0.03 0.03 0.03 0.03 0.03 0.03 0.03 0.04 0.04 0.05 0.05 0.05 0.04 0.05 0.05 0.05 0.05 0.04 0.04 0.03 0.02 0.02 0.02 0.02 0.03 0.03 0.03 0.03
0.03 0.03 0.03 0.03 0.03 0.03 0.03 0.02 0.02 0.03 0.03 0.04 0.04 0.04 0.04 0.04 0.04 0.04 0.04 0.04 0.04 0.04 0.05 0.05 0.05 0.05 0.06 0.05 0.05 0.04 0.03 0.02 0.02 0.02 0.02 0.03 0.03 0.03
0.03 0.02 0.02 0.03 0.03 0.04 0.04 0.04 0.04 0.04 0.05 0.04 0.04 0.05 0.05 0.05 0.06 0.05 0.04 0.04 0.05 0.04 0.04 0.05 0.05 0.05 0.05 0.06 0.06 0.06 0.04 0.03 0.02 0.02 0.02 0.02 0.03 0.03
0.04 0.03 0.02 0.02 0.02 0.03 0.04 0.04 0.05 0.04 0.04 0.05 0.04 0.04 0.05 0.04 0.04 0.05 0.05 0.05 0.06 0.05 0.04 0.05 0.05 0.06 0.05 0.05 0.07 0.07 0.06 0.04 0.03 0.02 0.02 0.02 0.03 0.03
0.04 0.03 0.03 0.02 0.02 0.02 0.02 0.03 0.04 0.04 0.03 0.04 0.05 0.03 0.04 0.04 0.03 0.04 0.04 0.04 0.04 0.04 0.04 0.06 0.06 0.06 0.06 0.06 0.06 0.06 0.06 0.05 0.04 0.03 0.02 0.02 0.02 0.02
0.03 0.03 0.03 0.02 0.02 0.02 0.02 0.03 0.03 0.04 0.03 0.03 0.04 0.03 0.03 0.03 0.04 0.04 0.03 0.04 0.04 0.04 0.05 0.06 0.05 0.05 0.04 0.05 0.06 0.05 0.05 0.07 0.06 0.05 0.03 0.02 0.02 0.02
0.03 0.03 0.03 0.03 0.03 0.04 0.04 0.03 0.03 0.05 0.05 0.05 0.05 0.05 0.05 0.05 0.06 0.07 0.07 0.07 0.06 0.06 0.06 0.06 0.05 0.05 0.05 0.04 0.04 0.05 0.05 0.07 0.09 0.09 0.07 0.05 0.03 0.02
0.04 0.04 0.04 0.04 0.04 0.04 0.04 0.04 0.04 0.04 0.05 0.07 0.07 0.07 0.07 0.07 0.08 0.08 0.07 0.07 0.07 0.06 0.05 0.04 0.04 0.05 0.06 0.07 0.05 0.05 0.05 0.06 0.07 0.08 0.10 0.09 0.07 0.04
0.06 0.06 0.06 0.06 0.06 0.06 0.06 0.05 0.04 0.04 0.05 0.07 0.07 0.06 0.06 0.07 0.08 0.09 0.08 0.06 0.06 0.05 0.04 0.04 0.04 0.04 0.05 0.05 0.05 0.05 0.05 0.05 0.05 0.07 0.09 0.10 0.09 0.09
0.09 0.08 0.08 0.08 0.08 0.08 0.07 0.06 0.06 0.06 0.06 0.07 0.09 0.08 0.06 0.06 0.07 0.07 0.08 0.07 0.06 0.05 0.03 0.04 0.04 0.04 0.04 0.04 0.04 0.04 0.04 0.04 0.04 0.04 0.06 0.09 0.11 0.10
0.08 0.10 0.10 0.10 0.10 0.10 0.10 0.09 0.08 0.08 0.08 0.10 0.10 0.09 0.06 0.05 0.06 0.06 0.08 0.08 0.07 0.06 0.05 0.04 0.04 0.04 0.04 0.04 0.04 0.03 0.04 0.04 0.04 0.04 0.04 0.06 0.08 0.11
0.07 0.08 0.09 0.09 0.09 0.10 0.10 0.11 0.10 0.10 0.10 0.10 0.10 0.09 0.07 0.06 0.06 0.07 0.08 0.08 0.08 0.07 0.07 0.06 0.06 0.05 0.05 0.05 0.04 0.04 0.03 0.03 0.04 0.04 0.04 0.04 0.05 0.08
0.07 0.07 0.07 0.07 0.07 0.08 0.08 0.10 0.11 0.13 0.13 0.11 0.09 0.08 0.07 0.07 0.07 0.07 0.06 0.06 0.06 0.06 0.06 0.06 0.07 0.07 0.06 0.05 0.05 0.05 0.05 0.04 0.04 0.04 0.04 0.06 0.06 0.07
0.06 0.07 0.07 0.08 0.08 0.08 0.08 0.09 0.11 0.12 0.12 0.11 0.09 0.08 0.08 0.08 0.07 0.07 0.06 0.05 0.05 0.05 0.04 0.05 0.06 0.07 0.09 0.09 0.07 0.06 0.05 0.05 0.05 0.04 0.04 0.05 0.06 0.07
0.06 0.06 0.07 0.08 0.09 0.09 0.08 0.08 0.09 0.10 0.10 0.10 0.09 0.08 0.08 0.07 0.07 0.07 0.07 0.06 0.05 0.05 0.04 0.04 0.05 0.05 0.07 0.07 0.06 0.05 0.05 0.05 0.05 0.06 0.05 0.04 0.05 0.05
0.07 0.07 0.07 0.08 0.09 0.11 0.10 0.09 0.09 0.08 0.08 0.09 0.09 0.08 0.08 0.07 0.07 0.07 0.07 0.07 0.06 0.06 0.05 0.05 0.06 0.05 0.05 0.05 0.04 0.04 0.04 0.05 0.05 0.06 0.06 0.05 0.05 0.06
0.09 0.09 0.09 0.09 0.10 0.10 0.11 0.10 0.09 0.08 0.07 0.06 0.07 0.07 0.07 0.07 0.07 0.06 0.06 0.07 0.07 0.06 0.06 0.05 0.05 0.06 0.06 0.07 0.07 0.06 0.06 0.06 0.06 0.06 0.06 0.06 0.07 0.06
0.09 0.09 0.09 0.09 0.09 0.09 0.09 0.08 0.07 0.06 0.06 0.06 0.06 0.06 0.06 0.06 0.06 0.06 0.06 0.06 0.06 0.06 0.05 0.05 0.05 0.06 0.07 0.09 0.09 0.07 0.06 0.07 0.08 0.08 0.08 0.07 0.06 0.05
0.09 0.08 0.08 0.08 0.08 0.07 0.07 0.06 0.05 0.05 0.05 0.05 0.05 0.05 0.06 0.06 0.06 0.07 0.06 0.06 0.05 0.05 0.05 0.05 0.05 0.06 0.07 0.07 0.08 0.07 0.06 0.06 0.06 0.07 0.08 0.08 0.06 0.04
MSLP
1026.64 1026.65 1026.62 1026.54 1026.41 1026.23 1026.03 1025.83 1025.65 1025.50 1025.39 1025.32 1025.26 1025.18 1025.06 1024.87 1024.61 1024.28 1023.89 1023.48 1023.06 1022.69 1022.36 1022.10 1021.90 1021.74 1021.60 1021.46 1021.29 1021.07 1020.79 1020.45 1020.07 1019.64 1019.19 1018.72 1018.25 1017.78
1026.83 1026.86 1026.84 1026.76 1026.61 1026.40 1026.17 1025.93 1025.72 1025.56 1025.45 1025.39 1025.34 1025.29 1025.19 1025.02 1024.77 1024.43 1024.03 1023.60 1023.16 1022.75 1022.40 1022.11 1021.89 1021.72 1021.58 1021.44 1021.28 1021.07 1020.81 1020.51 1020.16 1019.77 1019.37 1018.95 1018.52 1018.08
1026.91 1026.93 1026.90 1026.81 1026.64 1026.42 1026.17 1025.92 1025.71 1025.55 1025.45 1025.40 1025.38 1025.35 1025.28 1025.13 1024.89 1024.56 1024.15 1023.70 1023.24 1022.80 1022.42 1022.11 1021.86 1021.67 1021.51 1021.35 1021.18 1020.97 1020.73 1020.45 1020.13 1019.80 1019.45 1019.09 1018.72 1018.35
1026.91 1026.91 1026.87 1026.76 1026.58 1026.35 1026.09 1025.84 1025.63 1025.49 1025.40 1025.38 1025.38 1025.38 1025.32 1025.19 1024.96 1024.64 1024.23 1023.77 1023.30 1022.85 1022.45 1022.11 1021.83 1021.61 1021.42 1021.25 1021.06 1020.84 1020.59 1020.33 1020.04 1019.75 1019.45 1019.16 1018.87 1018.57
1026.88 1026.85 1026.78 1026.65 1026.46 1026.23 1025.97 1025.72 1025.52 1025.39 1025.32 1025.31 1025.33 1025.33 1025.29 1025.17 1024.95 1024.63 1024.23 1023.78 1023.30 1022.85 1022.45 1022.10 1021.81 1021.57 1021.36 1021.16 1020.95 1020.71 1020.46 1020.19 1019.92 1019.66 1019.41 1019.18 1018.96 1018.73
1026.82 1026.76 1026.66 1026.51 1026.31 1026.06 1025.81 1025.57 1025.37 1025.24 1025.18 1025.17 1025.19 1025.19 1025.15 1025.03 1024.81 1024.50 1024.11 1023.68 1023.23 1022.79 1022.40 1022.07 1021.78 1021.54 1021.32 1021.10 1020.86 1020.61 1020.34 1020.06 1019.79 1019.55 1019.33 1019.14 1018.97 1018.80
1026.71 1026.62 1026.49 1026.32 1026.10 1025.86 1025.60 1025.36 1025.17 1025.04 1024.97 1024.94 1024.94 1024.93 1024.87 1024.74 1024.53 1024.23 1023.86 1023.45 1023.04 1022.64 1022.29 1021.98 1021.72 1021.49 1021.27 1021.04 1020.79 1020.52 1020.23 1019.93 1019.65 1019.41 1019.20 1019.04 1018.91 1018.78
1026.55 1026.41 1026.26 1026.07 1025.84 1025.59 1025.33 1025.09 1024.89 1024.75 1024.66 1024.61 1024.58 1024.54 1024.46 1024.32 1024.10 1023.81 1023.47 1023.10 1022.72 1022.38 1022.07 1021.81 1021.58 1021.38 1021.17 1020.95 1020.69 1020.41 1020.10 1019.78 1019.48 1019.23 1019.01 1018.86 1018.74 1018.64
1026.29 1026.13 1025.95 1025.74 1025.50 1025.24 1024.98 1024.73 1024.53 1024.37 1024.25 1024.18 1024.12 1024.05 1023.94 1023.78 1023.56 1023.28 1022.96 1022.63 1022.31 1022.01 1021.76 1021.54 1021.36 1021.19 1021.00 1020.79 1020.53 1020.23 1019.91 1019.58 1019.26 1018.98 1018.75 1018.59 1018.48 1018.39
1025.95 1025.76 1025.55 1025.33 1025.08 1024.82 1024.55 1024.30 1024.09 1023.91 1023.78 1023.68 1023.59 1023.49 1023.36 1023.18 1022.96 1022.69 1022.40 1022.10 1021.81 1021.57 1021.36 1021.18 1021.04 1020.89 1020.73 1020.53 1020.28 1019.98 1019.64 1019.30 1018.96 1018.67 1018.43 1018.25 1018.13 1018.05
1025.53 1025.31 1025.09 1024.86 1024.60 1024.34 1024.08 1023.83 1023.61 1023.43 1023.29 1023.17 1023.06 1022.94 1022.79 1022.60 1022.38 1022.12 1021.84 1021.57 1021.31 1021.10 1020.92 1020.77 1020.65 1020.52 1020.37 1020.18 1019.94 1019.64 1019.31 1018.96 1018.61 1018.30 1018.05 1017.85 1017.72 1017.64
1025.06 1024.84 1024.60 1024.36 1024.11 1023.85 1023.60 1023.36 1023.15 1022.97 1022.83 1022.70 1022.58 1022.45 1022.30 1022.11 1021.89 1021.64 1021.37 1021.11 1020.87 1020.66 1020.49 1020.36 1020.24 1020.11 1019.97 1019.78 1019.55 1019.26 1018.93 1018.58 1018.23 1017.91 1017.65 1017.44 1017.29 1017.19
1024.60 1024.36 1024.12 1023.89 1023.64 1023.40 1023.16 1022.94 1022.75 1022.59 1022.45 1022.33 1022.22 1022.09 1021.94 1021.75 1021.53 1021.28 1021.02 1020.76 1020.52 1020.31 1020.13 1019.99 1019.85 1019.72 1019.57 1019.38 1019.15 1018.87 1018.55 1018.20 1017.86 1017.54 1017.26 1017.03 1016.86 1016.75
1024.16 1023.92 1023.70 1023.47 1023.24 1023.02 1022.81 1022.62 1022.45 1022.31 1022.19 1022.09 1021.98 1021.86 1021.72 1021.54 1021.32 1021.08 1020.82 1020.55 1020.30 1020.07 1019.87 1019.70 1019.54 1019.39 1019.22 1019.03 1018.79 1018.51 1018.19 1017.86 1017.52 1017.19 1016.90 1016.65 1016.45 1016.30
1023.77 1023.55 1023.34 1023.14 1022.94 1022.75 1022.56 1022.40 1022.26 1022.15 1022.05 1021.96 1021.87 1021.76 1021.62 1021.45 1021.24 1020.99 1020.72 1020.44 1020.17 1019.92 1019.69 1019.49 1019.30 1019.12 1018.94 1018.72 1018.48 1018.20 1017.89 1017.55 1017.21 1016.87 1016.55 1016.27 1016.03 1015.83
1023.45 1023.25 1023.08 1022.90 1022.74 1022.58 1022.43 1022.30 1022.18 1022.08 1022.00 1021.92 1021.84 1021.73 1021.60 1021.42 1021.21 1020.96 1020.68 1020.39 1020.10 1019.82 1019.57 1019.33 1019.11 1018.90 1018.69 1018.46 1018.20 1017.92 1017.60 1017.26 1016.90 1016.55 1016.20 1015.88 1015.58 1015.31
1023.19 1023.04 1022.90 1022.76 1022.63 1022.51 1022.39 1022.28 1022.18 1022.09 1022.01 1021.92 1021.83 1021.72 1021.57 1021.38 1021.16 1020.90 1020.61 1020.30 1020.00 1019.70 1019.42 1019.15 1018.91 1018.67 1018.43 1018.18 1017.91 1017.61 1017.28 1016.93 1016.55 1016.17 1015.78 1015.41 1015.05 1014.71
1023.01 1022.90 1022.80 1022.71 1022.61 1022.51 1022.41 1022.31 1022.21 1022.11 1022.01 1021.90 1021.78 1021.64 1021.46 1021.25 1021.00 1020.72 1020.42 1020.10 1019.78 1019.46 1019.16 1018.87 1018.60 1018.34 1018.08 1017.81 1017.52 1017.21 1016.86 1016.48 1016.09 1015.67 1015.24 1014.82 1014.40 1014.00
1022.91 1022.84 1022.78 1022.72 1022.65 1022.57 1022.47 1022.36 1022.24 1022.11 1021.97 1021.81 1021.64 1021.44 1021.22 1020.96 1020.68 1020.37 1020.05 1019.71 1019.37 1019.04 1018.73 1018.42 1018.14 1017.86 1017.58 1017.29 1016.98 1016.64 1016.28 1015.88 1015.46 1015.01 1014.55 1014.08 1013.62 1013.17
1022.90 1022.86 1022.83 1022.79 1022.73 1022.65 1022.53 1022.40 1022.23 1022.05 1021.84 1021.61 1021.37 1021.10 1020.81 1020.50 1020.17 1019.82 1019.46 1019.10 1018.75 1018.41 1018.08 1017.77 1017.47 1017.17 1016.88 1016.57 1016.24 1015.89 1015.51 1015.09 1014.65 1014.19 1013.71 1013.22 1012.73 1012.25
1022.98 1022.96 1022.94 1022.90 1022.84 1022.73 1022.58 1022.39 1022.17 1021.91 1021.62 1021.30 1020.96 1020.61 1020.24 1019.85 1019.46 1019.07 1018.68 1018.30 1017.93 1017.58 1017.24 1016.92 1016.61 1016.30 1015.99 1015.67 1015.32 1014.96 1014.56 1014.14 1013.69 1013.22 1012.74 1012.25 1011.77 1011.29
1023.15 1023.13 1023.10 1023.04 1022.94 1022.79 1022.59 1022.34 1022.03 1021.68 1021.29 1020.87 1020.44 1019.98 1019.53 1019.07 1018.62 1018.18 1017.75 1017.34 1016.96 1016.60 1016.25 1015.92 1015.60 1015.29 1014.97 1014.64 1014.28 1013.91 1013.51 1013.09 1012.64 1012.18 1011.71 1011.25 1010.79 1010.34
1023.37 1023.33 1023.27 1023.18 1023.03 1022.82 1022.54 1022.20 1021.80 1021.36 1020.87 1020.35 1019.81 1019.27 1018.73 1018.20 1017.69 1017.20 1016.75 1016.32 1015.92 1015.55 1015.21 1014.88 1014.56 1014.24 1013.91 1013.57 1013.21 1012.83 1012.43 1012.01 1011.58 1011.14 1010.70 1010.27 1009.85 1009.44
Thickness
5452 5455 5459 5463 5466 5470 5474 5477 5481 5486 5493 5499 5504 5510 5512 5516 5520 5523 5527 5530 5533 5535 5537 5539 5540 5542 5543 5544 5545 5546 5546 5546 5546 5545 5546 5545 5545 5544
5439 5443 5447 5450 5453 5457 5461 5465 5469 5474 5479 5487 5490 5495 5498 5503 5507 5511 5514 5517 5520 5523 5525 5527 5529 5531 5532 5533 5534 5535 5536 5536 5536 5536 5536 5536 5535 5535
5426 5430 5434 5437 5440 5444 5447 5451 5455 5460 5465 5473 5476 5481 5484 5489 5494 5498 5501 5504 5508 5510 5513 5515 5517 5519 5521 5522 5523 5525 5526 5526 5526 5526 5526 5526 5525 5525
5413 5417 5421 5424 5428 5431 5435 5439 5443 5447 5452 5458 5462 5466 5471 5476 5481 5484 5487 5492 5495 5498 5501 5503 5505 5507 5509 5511 5513 5514 5515 5515 5516 5516 5516 5516 5515 5514
5402 5405 5409 5412 5416 5419 5422 5426 5431 5435 5439 5445 5450 5453 5457 5462 5466 5470 5474 5478 5482 5486 5488 5491 5493 5495 5498 5500 5501 5503 5504 5505 5506 5505 5504 5504 5504 5504
5391 5395 5398 5401 5405 5408 5411 5415 5418 5422 5426 5431 5437 5440 5444 5448 5452 5456 5460 5464 5468 5473 5476 5479 5480 5483 5486 5488 5491 5492 5493 5493 5493 5494 5493 5493 5493 5492
5381 5385 5388 5392 5395 5398 5401 5405 5407 5411 5415 5419 5424 5428 5432 5435 5439 5443 5447 5451 5454 5459 5463 5466 5469 5471 5472 5475 5477 5479 5481 5482 5482 5482 5482 5482 5481 5481
5371 5374 5378 5381 5385 5388 5392 5395 5398 5401 5404 5408 5413 5418 5424 5426 5428 5430 5433 5436 5442 5447 5449 5451 5454 5457 5460 5462 5465 5467 5468 5469 5469 5470 5470 5470 5470 5469
5360 5364 5368 5372 5374 5377 5381 5384 5387 5391 5396 5400 5404 5410 5414 5418 5418 5419 5422 5424 5429 5432 5433 5438 5441 5445 5448 5450 5452 5454 5456 5457 5458 5458 5458 5458 5458 5458
5350 5354 5357 5361 5364 5366 5370 5373 5376 5381 5386 5390 5396 5402 5405 5407 5409 5411 5413 5413 5415 5418 5421 5425 5428 5432 5435 5437 5440 5442 5444 5445 5445 5446 5446 5446 5446 5445
5340 5343 5347 5351 5356 5357 5360 5364 5368 5371 5375 5380 5385 5390 5394 5397 5398 5398 5400 5401 5405 5408 5409 5412 5416 5418 5421 5424 5426 5428 5430 5431 5432 5433 5433 5433 5433 5433
5331 5334 5338 5341 5345 5348 5351 5355 5359 5363 5367 5370 5373 5378 5382 5385 5387 5390 5392 5393 5395 5397 5399 5400 5403 5404 5406 5411 5413 5414 5416 5418 5419 5419 5420 5420 5420 5419
5321 5325 5329 5332 5336 5339 5342 5347 5352 5356 5358 5361 5364 5367 5370 5374 5376 5379 5381 5383 5386 5388 5390 5390 5390 5391 5393 5396 5399 5401 5402 5404 5405 5405 5406 5407 5406 5407
5312 5316 5320 5323 5327 5330 5334 5338 5342 5346 5349 5351 5355 5357 5360 5363 5366 5368 5370 5372 5375 5378 5379 5379 5380 5380 5380 5382 5385 5387 5388 5390 5391 5392 5393 5393 5393 5393
5304 5308 5312 5315 5319 5322 5325 5329 5332 5335 5339 5341 5345 5348 5350 5353 5354 5356 5358 5359 5362 5364 5365 5366 5368 5369 5370 5371 5373 5374 5374 5376 5378 5379 5379 5379 5380 5379
5294 5298 5302 5306 5310 5313 5316 5319 5322 5326 5329 5332 5335 5337 5339 5341 5343 5345 5346 5348 5349 5351 5352 5354 5355 5357 5358 5360 5361 5362 5362 5363 5365 5365 5366 5366 5366 5367
5285 5289 5292 5296 5299 5303 5307 5309 5312 5316 5318 5321 5324 5327 5329 5330 5332 5333 5335 5336 5338 5340 5340 5340 5341 5343 5345 5347 5348 5350 5351 5351 5352 5352 5353 5353 5354 5354
5276 5278 5281 5285 5288 5292 5297 5300 5303 5306 5309 5311 5314 5316 5318 5320 5321 5322 5324 5326 5327 5329 5329 5328 5328 5329 5331 5332 5336 5338 5338 5339 5340 5340 5340 5341 5342 5342
5265 5267 5270 5273 5277 5282 5286 5290 5293 5295 5298 5301 5304 5306 5308 5309 5310 5311 5313 5314 5316 5317 5317 5317 5317 5319 5321 5322 5324 5326 5327 5328 5328 5328 5328 5328 5329 5330
5253 5256 5259 5262 5266 5271 5275 5279 5283 5286 5288 5291 5293 5295 5297 5299 5300 5301 5302 5303 5304 5306 5306 5307 5308 5310 5312 5313 5313 5314 5315 5316 5316 5316 5315 5315 5316 5317
5240 5244 5247 5251 5256 5260 5264 5269 5273 5276 5279 5281 5283 5284 5286 5287 5289 5290 5292 5294 5296 5296 5297 5298 5299 5300 5300 5300 5300 5302 5303 5303 5304 5304 5304 5303 5303 5304
5230 5234 5238 5242 5246 5250 5254 5258 5262 5265 5269 5271 5273 5274 5276 5278 5279 5281 5283 5284 5286 5287 5288 5288 5288 5289 5290 5291 5292 5292 5292 5292 5292 5292 5293 5293 5292 5292
5220 5224 5229 5233 5237 5241 5245 5249 5252 5256 5258 5261 5263 5265 5267 5268 5270 5272 5274 5275 5277 5278 5278 5278 5278 5278 5279 5280 5280 5280 5280 5280 5281 5281 5281 5282 5283 5283